SCP
0 -0 -0 0 0 0 0 -1 -1 -1 0 0 0 0 0 0 0 0 -0 0 -0 -0 -0 0 0 0 0 0 0 -0 0 -0 0 0 0 0 0 0 -0 -0 0 0 0
0 0 0 0 -0 0 0 0 -0 -0 0 1 0 1 1 0 0 0 0 0 0 -0 -0 0 0 0 0 0 0 0 0 0 0 0 0 0 0 0 0 0 -0 -0 -0
0 0 0 0 0 0 0 1 1 1 1 1 1 1 1 1 0 0 0 0 0 0 -0 -0 0 0 0 0 0 0 0 0 0 0 0 0 0 0 0 0 0 0 0
0 0 0 0 0 1 1 1 2 2 1 1 2 1 1 1 0 0 0 1 1 0 0 0 0 0 0 0 0 0 0 0 0 0 0 0 0 0 0 0 0 0 0
-0 -0 0 0 0 1 1 1 1 1 1 1 1 1 1 1 1 1 1 0 1 1 1 0 0 0 0 0 0 0 0 0 0 0 0 0 0 0 0 0 0 -0 0
0 0 0 0 0 0 1 1 0 0 1 1 1 1 1 1 1 1 1 1 1 1 1 1 1 0 0 0 0 0 0 0 0 0 0 0 0 0 0 0 0 0 0
0 0 0 0 0 0 0 0 1 1 1 1 1 1 1 1 1 1 1 1 1 1 1 2 2 1 0 0 0 0 0 0 0 0 0 0 0 0 0 0 0 0 0
0 0 0 0 0 0 0 0 0 0 0 1 1 1 1 1 1 1 1 1 1 1 1 2 2 1 1 1 1 1 1 1 0 0 0 0 0 0 0 0 0 0 0
0 0 0 0 0 0 0 0 0 0 0 0 0 0 1 1 2 1 1 1 1 1 1 1 2 1 2 2 1 1 1 1 1 0 0 0 0 0 0 0 0 0 0
0 0 0 0 0 0 0 0 0 0 0 0 0 0 0 1 1 1 1 1 2 1 1 1 1 1 1 1 2 2 1 2 1 1 1 0 1 0 0 0 0 0 0
0 0 0 0 0 0 0 0 0 0 0 0 0 0 0 0 0 1 1 1 2 2 2 1 1 1 1 1 2 1 1 1 1 1 1 1 1 1 1 1 0 0 0
0 0 0 0 0 0 0 0 0 0 0 0 0 0 0 0 0 0 0 1 1 2 2 1 1 1 0 0 0 0 0 0 0 1 1 1 1 0 0 0 0 0 0
0 0 0 0 0 0 0 0 0 0 0 0 0 0 0 0 0 0 0 1 1 1 1 1 1 1 0 0 0 0 0 0 0 0 0 0 0 0 1 0 0 0 0
0 0 0 0 0 0 0 0 0 0 0 0 0 0 0 0 0 0 0 0 1 1 1 1 1 1 0 0 0 0 0 0 0 0 0 0 0 0 0 1 0 0 0
0 0 0 0 0 0 -0 0 0 0 0 0 0 0 0 0 0 0 0 0 0 0 0 1 1 1 0 0 0 0 0 0 0 0 0 0 0 0 0 1 1 1 0
0 0 0 0 0 0 0 0 0 0 0 0 0 0 0 0 0 0 0 0 0 0 0 1 1 1 1 0 0 0 0 0 0 0 -0 0 0 0 0 0 1 0 1
-0 0 0 0 0 0 0 0 0 0 0 0 0 0 0 0 0 0 0 0 0 0 0 0 0 0 0 0 0 0 0 0 0 0 0 -0 0 0 0 0 0 0 0
0 0 0 0 0 0 0 0 0 0 0 0 0 0 0 0 0 0 0 0 0 0 0 0 0 0 0 0 0 0 0 0 0 0 -0 -0 0 0 0 0 0 0 0
0 0 0 0 0 0 0 0 0 0 0 0 0 0 0 0 -0 0 0 0 0 0 0 0 0 0 0 0 0 0 0 0 0 0 0 0 0 0 0 0 0 0 0
0 0 0 0 0 0 0 0 0 0 0 0 0 0 0 0 0 0 -0 0 0 0 0 0 0 0 0 0 0 0 0 0 0 0 0 0 0 0 0 0 0 0 0
0 0 0 0 0 0 0 0 0 0 0 0 0 0 0 0 0 -0 0 -0 0 0 0 0 0 0 0 0 0 0 0 0 0 0 0 0 0 0 0 0 0 0 0
0 0 0 0 0 0 0 0 0 0 0 0 0 0 0 0 -0 0 0 -0 -0 -0 0 0 0 0 0 0 0 0 0 0 0 0 0 0 0 0 0 0 0 0 0
0 0 0 0 0 0 0 0 0 0 0 0 0 0 0 0 -0 0 -0 -0 -0 -0 0 0 0 0 0 0 0 0 0 0 0 0 0 0 0 0 0 0 0 0 0
0 0 0 0 0 0 0 0 0 0 0 0 0 0 0 -0 -0 0 -0 -0 0 -0 -0 -0 -0 -0 0 0 0 0 0 0 0 0 0 0 0 0 0 0 0 0 0
0 0 0 0 0 0 0 0 0 0 -0 -0 -0 -0 -0 0 0 -0 -0 -0 -0 -0 -0 -0 -0 -0 -0 -0 0 0 0 0 0 0 0 0 0 0 0 0 0 0 0
0 0 0 0 0 0 0 0 0 -0 -0 0 -0 0 0 -0 -0 -0 -0 -0 -0 0 0 0 -0 -0 -0 -0 0 0 0 0 0 0 -0 -0 0 0 0 0 0 0 0
Wind_Speed_500mb
41 46 49 44 23 65 66 65 56 33 40 54 43 45 56 59 58 54 49 49 50 49 49 47 46 50 52 50 46 42 38 44 42 42 44 39 36 40 45 61 61 51 46
59 42 39 32 27 44 56 55 49 40 46 42 47 54 47 55 66 62 55 53 56 53 57 59 53 50 56 54 49 48 46 43 47 43 42 43 43 50 46 45 48 59 57
50 49 47 35 18 40 55 62 56 46 45 47 48 57 54 56 56 78 73 64 61 60 60 60 59 56 53 64 59 57 54 56 49 51 43 25 31 34 50 50 52 50 48
36 32 32 30 22 15 7 24 53 52 52 42 57 55 62 62 64 70 82 82 78 75 68 66 65 63 59 64 70 64 64 56 57 59 60 62 37 20 26 32 41 48 58
37 32 21 19 13 3 15 12 8 30 41 40 46 54 56 62 63 61 74 80 77 81 84 75 73 73 70 67 68 71 72 68 69 68 71 67 68 67 46 39 39 38 39
41 31 27 23 17 14 12 18 16 13 20 35 43 51 57 60 62 65 69 74 81 80 85 86 84 79 81 79 74 79 79 83 79 75 73 73 66 70 71 70 63 51 36
42 39 38 28 24 13 3 5 6 15 24 31 34 35 41 49 55 60 72 77 81 86 92 87 95 95 92 91 83 80 88 88 91 88 87 84 77 69 65 67 61 60 55
39 40 35 25 26 17 16 16 18 22 27 32 38 46 49 48 49 54 60 70 82 87 93 94 93 100 101 91 92 87 86 93 93 90 86 88 86 82 75 68 59 62 60
39 46 41 34 25 16 6 3 7 16 21 21 29 43 49 55 59 57 56 57 63 72 91 93 96 92 102 105 100 96 91 88 96 97 87 82 83 89 90 83 78 69 61
46 39 27 17 6 7 17 26 40 47 51 58 59 54 55 55 59 65 68 64 61 61 63 82 97 99 99 100 106 108 105 92 93 97 99 89 81 76 73 76 75 73 69
34 25 15 2 11 21 30 36 42 49 62 64 61 60 58 63 67 65 73 75 70 66 66 63 65 75 93 106 104 105 90 93 94 94 97 92 81 76 75 73 74 72 68
24 16 5 8 21 29 37 45 55 58 55 54 58 56 56 59 64 73 73 70 77 70 71 67 63 60 64 69 77 103 81 77 88 87 89 89 82 78 75 73 70 74 72
24 14 6 11 21 28 38 52 53 50 51 51 51 48 49 51 54 62 70 78 65 72 72 73 69 64 63 58 53 52 37 84 54 77 68 74 74 77 71 73 68 71 73
16 10 11 13 18 33 45 43 42 44 49 51 50 51 49 49 52 54 56 57 66 71 72 72 68 63 65 55 53 32 49 44 71 69 78 67 67 78 74 74 69 63 69
19 14 6 14 31 38 42 40 40 44 45 47 50 54 56 56 54 55 56 57 61 71 73 72 68 65 67 56 52 53 50 68 70 106 109 79 69 67 69 73 70 65 61
19 6 11 29 35 39 38 38 40 42 42 44 46 55 60 60 55 58 56 54 55 57 63 64 63 62 64 56 56 63 64 68 77 85 86 71 71 76 68 69 71 73 66
8 13 22 28 32 31 30 33 38 40 42 39 45 49 48 52 56 70 66 53 51 47 47 52 57 61 63 62 57 61 68 68 76 77 82 73 56 60 78 85 82 78 73
10 18 21 28 28 29 28 31 32 37 39 34 41 42 49 69 77 67 53 42 37 35 34 41 45 47 55 54 47 49 61 68 77 83 81 71 63 60 52 72 81 71 61
9 21 25 29 28 29 29 31 34 32 38 38 40 43 56 65 72 65 54 25 28 32 25 24 29 33 35 40 43 46 48 50 62 79 78 69 62 55 46 56 97 104 91
11 20 23 23 23 22 28 25 33 37 36 38 40 42 42 59 57 57 67 25 17 20 17 24 27 30 29 32 35 37 41 41 47 52 57 63 76 75 57 67 71 63 82
13 20 23 16 17 19 24 22 27 26 35 39 39 39 38 49 47 41 53 64 18 14 20 15 21 28 32 30 32 31 32 33 35 35 37 40 41 48 55 56 55 53 46
15 22 20 15 17 21 23 24 25 20 40 42 37 45 26 41 37 25 55 59 58 39 26 15 0 11 21 27 36 30 26 21 21 26 27 29 31 33 29 35 42 46 43
13 19 24 16 16 19 17 18 22 23 35 39 49 39 22 24 26 33 36 43 48 59 65 40 47 40 35 25 23 16 17 20 16 13 14 15 13 12 12 12 12 17 26
7 13 22 19 15 12 14 17 22 23 29 34 41 34 22 18 19 25 29 28 40 39 38 44 45 36 37 43 37 28 21 19 17 16 15 14 16 17 16 16 16 17 16
8 11 15 13 9 8 11 14 23 25 25 29 29 36 27 21 24 27 29 35 33 35 34 33 34 35 39 41 37 31 26 30 27 30 31 25 12 11 17 15 16 19 20
9 12 11 7 7 7 13 11 22 13 14 12 25 34 33 47 34 21 21 28 33 31 29 26 25 29 31 30 29 29 26 22 22 22 23 29 27 24 21 19 16 18 15
Wind_Direction_500mb
139 179 199 220 203 206 230 229 226 242 230 219 227 234 233 232 234 236 238 239 241 244 245 248 244 233 233 234 229 225 232 230 227 238 232 241 231 230 234 236 237 241 243
110 133 179 204 200 209 226 225 238 244 236 235 248 242 247 239 233 234 239 242 240 244 249 248 246 242 236 232 229 223 228 226 221 224 230 244 246 246 237 236 237 239 243
126 129 124 120 131 222 224 229 240 251 253 245 243 243 246 248 246 236 240 240 244 245 249 249 246 243 242 235 232 225 227 231 225 224 228 227 238 254 247 245 246 242 241
137 138 148 163 167 161 222 246 248 249 256 250 251 249 247 253 252 239 237 243 242 245 248 251 248 246 245 243 242 236 233 235 232 230 232 234 245 245 251 249 251 258 252
149 137 133 145 168 194 235 259 256 253 253 263 260 258 260 261 264 255 246 244 244 245 248 249 252 249 249 250 250 240 235 238 239 232 233 237 245 247 251 254 257 271 258
159 158 162 150 132 89 74 22 339 318 265 263 269 265 262 269 269 259 256 249 245 245 247 251 249 251 251 251 252 246 237 238 242 243 239 237 242 240 241 251 258 269 272
166 170 173 170 175 166 74 48 4 329 319 305 302 296 283 280 278 274 264 257 252 251 250 248 250 252 252 252 252 250 245 241 239 243 244 244 244 243 248 253 255 260 260
167 171 170 171 170 175 188 223 236 253 265 269 282 290 289 283 280 278 277 269 257 253 253 256 251 250 252 254 252 253 253 247 245 243 244 244 244 243 245 248 251 257 261
152 153 134 141 144 148 165 245 301 311 309 305 285 276 274 277 280 281 282 282 277 264 256 252 255 253 250 250 251 249 251 247 247 247 246 244 245 246 247 249 248 252 258
131 133 138 142 150 306 314 320 314 314 314 313 307 292 277 274 273 272 273 274 282 279 273 261 256 254 255 252 249 249 251 249 246 247 246 244 243 246 245 248 248 247 251
136 142 136 162 308 315 318 313 314 316 315 311 306 298 285 270 268 269 267 268 270 272 276 279 277 269 258 256 253 247 238 249 250 250 248 245 243 248 250 248 250 249 248
134 141 173 288 304 313 318 325 326 325 321 316 313 304 300 288 277 268 267 270 270 267 269 270 271 278 276 270 258 240 254 251 248 240 250 248 245 244 248 250 250 251 251
148 155 205 286 303 309 326 329 327 329 328 321 320 316 314 307 295 282 274 266 267 265 268 271 272 268 269 272 244 277 258 226 212 227 231 245 246 248 246 248 249 250 249
162 199 250 277 318 335 340 335 336 335 334 333 326 321 314 313 307 296 287 278 265 262 264 267 271 265 264 264 260 257 237 247 232 256 249 244 242 248 245 248 249 249 252
180 205 257 331 335 338 339 336 337 337 333 334 333 329 322 318 312 306 295 288 278 266 263 263 262 257 259 257 249 243 220 236 230 238 228 237 244 249 248 247 250 249 250
178 188 320 330 329 334 331 333 336 339 337 335 333 331 322 318 315 319 307 295 287 274 262 254 251 252 255 255 250 237 231 241 236 230 220 237 250 238 247 246 248 248 246
217 318 322 323 327 328 328 334 338 340 336 338 340 339 339 330 325 323 310 287 287 274 259 249 249 250 254 254 250 245 238 237 232 213 215 231 237 252 256 252 253 244 247
290 307 317 327 330 331 324 330 335 340 335 343 346 346 347 349 343 327 307 275 276 271 251 249 252 250 252 249 252 251 250 234 218 223 233 244 252 259 265 241 244 242 248
302 318 321 322 331 329 326 328 338 329 343 345 347 359 357 350 348 350 7 330 269 254 241 238 242 244 250 252 249 244 245 250 239 239 242 242 249 256 268 250 238 246 259
294 298 309 308 327 329 336 325 341 339 343 341 340 347 345 349 349 5 3 348 289 253 245 239 242 242 241 245 242 236 237 241 243 247 246 250 250 254 253 250 253 244 248
298 296 296 289 314 324 344 333 335 357 343 341 344 339 339 328 335 355 15 20 16 230 241 255 246 233 231 231 235 234 223 226 231 236 245 253 252 256 254 252 249 247 249
279 290 278 286 314 323 329 338 337 327 342 353 351 345 350 351 352 5 25 23 50 64 63 61 205 231 228 230 227 226 216 212 219 227 236 245 243 245 248 251 247 248 251
287 289 266 253 307 319 325 331 343 335 348 352 355 348 352 344 8 23 47 43 43 51 53 51 79 85 100 107 129 154 185 198 206 222 208 196 198 204 213 225 225 207 208
277 294 249 261 296 314 340 327 345 337 337 355 8 9 15 3 38 47 47 57 64 59 69 67 65 68 69 78 85 107 116 121 118 138 149 140 149 151 154 145 157 156 169
277 281 248 260 265 300 325 328 344 342 334 13 0 30 47 38 31 47 60 67 63 63 66 71 74 72 70 67 66 72 80 86 104 101 88 77 83 117 106 122 134 135 134
283 247 193 197 233 295 305 326 340 346 348 20 2 31 38 43 30 58 52 63 61 61 62 62 63 65 62 60 63 68 81 83 75 77 86 93 95 77 72 83 97 106 104
Wind_Speed_850mb
41 46 49 44 23 65 66 65 56 33 40 54 43 45 56 59 58 54 49 49 50 49 49 47 46 50 52 50 46 42 38 44 42 42 44 39 36 40 45 61 61 51 46
59 42 39 32 27 44 56 55 49 40 46 42 47 54 47 55 66 62 55 53 56 53 57 59 53 50 56 54 49 48 46 43 47 43 42 43 43 50 46 45 48 59 57
50 49 47 35 18 40 55 62 56 46 45 47 48 57 54 56 56 78 73 64 61 60 60 60 59 56 53 64 59 57 54 56 49 51 43 25 31 34 50 50 52 50 48
36 32 32 30 22 15 7 24 53 52 52 42 57 55 62 62 64 70 82 82 78 75 68 66 65 63 59 64 70 64 64 56 57 59 60 62 37 20 26 32 41 48 58
37 32 21 19 13 3 15 12 8 30 41 40 46 54 56 62 63 61 74 80 77 81 84 75 73 73 70 67 68 71 72 68 69 68 71 67 68 67 46 39 39 38 39
41 31 27 23 17 14 12 18 16 13 20 35 43 51 57 60 62 65 69 74 81 80 85 86 84 79 81 79 74 79 79 83 79 75 73 73 66 70 71 70 63 51 36
42 39 38 28 24 13 3 5 6 15 24 31 34 35 41 49 55 60 72 77 81 86 92 87 95 95 92 91 83 80 88 88 91 88 87 84 77 69 65 67 61 60 55
39 40 35 25 26 17 16 16 18 22 27 32 38 46 49 48 49 54 60 70 82 87 93 94 93 100 101 91 92 87 86 93 93 90 86 88 86 82 75 68 59 62 60
39 46 41 34 25 16 6 3 7 16 21 21 29 43 49 55 59 57 56 57 63 72 91 93 96 92 102 105 100 96 91 88 96 97 87 82 83 89 90 83 78 69 61
46 39 27 17 6 7 17 26 40 47 51 58 59 54 55 55 59 65 68 64 61 61 63 82 97 99 99 100 106 108 105 92 93 97 99 89 81 76 73 76 75 73 69
34 25 15 2 11 21 30 36 42 49 62 64 61 60 58 63 67 65 73 75 70 66 66 63 65 75 93 106 104 105 90 93 94 94 97 92 81 76 75 73 74 72 68
24 16 5 8 21 29 37 45 55 58 55 54 58 56 56 59 64 73 73 70 77 70 71 67 63 60 64 69 77 103 81 77 88 87 89 89 82 78 75 73 70 74 72
24 14 6 11 21 28 38 52 53 50 51 51 51 48 49 51 54 62 70 78 65 72 72 73 69 64 63 58 53 52 37 84 54 77 68 74 74 77 71 73 68 71 73
16 10 11 13 18 33 45 43 42 44 49 51 50 51 49 49 52 54 56 57 66 71 72 72 68 63 65 55 53 32 49 44 71 69 78 67 67 78 74 74 69 63 69
19 14 6 14 31 38 42 40 40 44 45 47 50 54 56 56 54 55 56 57 61 71 73 72 68 65 67 56 52 53 50 68 70 106 109 79 69 67 69 73 70 65 61
19 6 11 29 35 39 38 38 40 42 42 44 46 55 60 60 55 58 56 54 55 57 63 64 63 62 64 56 56 63 64 68 77 85 86 71 71 76 68 69 71 73 66
8 13 22 28 32 31 30 33 38 40 42 39 45 49 48 52 56 70 66 53 51 47 47 52 57 61 63 62 57 61 68 68 76 77 82 73 56 60 78 85 82 78 73
10 18 21 28 28 29 28 31 32 37 39 34 41 42 49 69 77 67 53 42 37 35 34 41 45 47 55 54 47 49 61 68 77 83 81 71 63 60 52 72 81 71 61
9 21 25 29 28 29 29 31 34 32 38 38 40 43 56 65 72 65 54 25 28 32 25 24 29 33 35 40 43 46 48 50 62 79 78 69 62 55 46 56 97 104 91
11 20 23 23 23 22 28 25 33 37 36 38 40 42 42 59 57 57 67 25 17 20 17 24 27 30 29 32 35 37 41 41 47 52 57 63 76 75 57 67 71 63 82
13 20 23 16 17 19 24 22 27 26 35 39 39 39 38 49 47 41 53 64 18 14 20 15 21 28 32 30 32 31 32 33 35 35 37 40 41 48 55 56 55 53 46
15 22 20 15 17 21 23 24 25 20 40 42 37 45 26 41 37 25 55 59 58 39 26 15 0 11 21 27 36 30 26 21 21 26 27 29 31 33 29 35 42 46 43
13 19 24 16 16 19 17 18 22 23 35 39 49 39 22 24 26 33 36 43 48 59 65 40 47 40 35 25 23 16 17 20 16 13 14 15 13 12 12 12 12 17 26
7 13 22 19 15 12 14 17 22 23 29 34 41 34 22 18 19 25 29 28 40 39 38 44 45 36 37 43 37 28 21 19 17 16 15 14 16 17 16 16 16 17 16
8 11 15 13 9 8 11 14 23 25 25 29 29 36 27 21 24 27 29 35 33 35 34 33 34 35 39 41 37 31 26 30 27 30 31 25 12 11 17 15 16 19 20
9 12 11 7 7 7 13 11 22 13 14 12 25 34 33 47 34 21 21 28 33 31 29 26 25 29 31 30 29 29 26 22 22 22 23 29 27 24 21 19 16 18 15
Wind_Direction_850mb
139 179 199 220 203 206 230 229 226 242 230 219 227 234 233 232 234 236 238 239 241 244 245 248 244 233 233 234 229 225 232 230 227 238 232 241 231 230 234 236 237 241 243
110 133 179 204 200 209 226 225 238 244 236 235 248 242 247 239 233 234 239 242 240 244 249 248 246 242 236 232 229 223 228 226 221 224 230 244 246 246 237 236 237 239 243
126 129 124 120 131 222 224 229 240 251 253 245 243 243 246 248 246 236 240 240 244 245 249 249 246 243 242 235 232 225 227 231 225 224 228 227 238 254 247 245 246 242 241
137 138 148 163 167 161 222 246 248 249 256 250 251 249 247 253 252 239 237 243 242 245 248 251 248 246 245 243 242 236 233 235 232 230 232 234 245 245 251 249 251 258 252
149 137 133 145 168 194 235 259 256 253 253 263 260 258 260 261 264 255 246 244 244 245 248 249 252 249 249 250 250 240 235 238 239 232 233 237 245 247 251 254 257 271 258
159 158 162 150 132 89 74 22 339 318 265 263 269 265 262 269 269 259 256 249 245 245 247 251 249 251 251 251 252 246 237 238 242 243 239 237 242 240 241 251 258 269 272
166 170 173 170 175 166 74 48 4 329 319 305 302 296 283 280 278 274 264 257 252 251 250 248 250 252 252 252 252 250 245 241 239 243 244 244 244 243 248 253 255 260 260
167 171 170 171 170 175 188 223 236 253 265 269 282 290 289 283 280 278 277 269 257 253 253 256 251 250 252 254 252 253 253 247 245 243 244 244 244 243 245 248 251 257 261
152 153 134 141 144 148 165 245 301 311 309 305 285 276 274 277 280 281 282 282 277 264 256 252 255 253 250 250 251 249 251 247 247 247 246 244 245 246 247 249 248 252 258
131 133 138 142 150 306 314 320 314 314 314 313 307 292 277 274 273 272 273 274 282 279 273 261 256 254 255 252 249 249 251 249 246 247 246 244 243 246 245 248 248 247 251
136 142 136 162 308 315 318 313 314 316 315 311 306 298 285 270 268 269 267 268 270 272 276 279 277 269 258 256 253 247 238 249 250 250 248 245 243 248 250 248 250 249 248
134 141 173 288 304 313 318 325 326 325 321 316 313 304 300 288 277 268 267 270 270 267 269 270 271 278 276 270 258 240 254 251 248 240 250 248 245 244 248 250 250 251 251
148 155 205 286 303 309 326 329 327 329 328 321 320 316 314 307 295 282 274 266 267 265 268 271 272 268 269 272 244 277 258 226 212 227 231 245 246 248 246 248 249 250 249
162 199 250 277 318 335 340 335 336 335 334 333 326 321 314 313 307 296 287 278 265 262 264 267 271 265 264 264 260 257 237 247 232 256 249 244 242 248 245 248 249 249 252
180 205 257 331 335 338 339 336 337 337 333 334 333 329 322 318 312 306 295 288 278 266 263 263 262 257 259 257 249 243 220 236 230 238 228 237 244 249 248 247 250 249 250
178 188 320 330 329 334 331 333 336 339 337 335 333 331 322 318 315 319 307 295 287 274 262 254 251 252 255 255 250 237 231 241 236 230 220 237 250 238 247 246 248 248 246
217 318 322 323 327 328 328 334 338 340 336 338 340 339 339 330 325 323 310 287 287 274 259 249 249 250 254 254 250 245 238 237 232 213 215 231 237 252 256 252 253 244 247
290 307 317 327 330 331 324 330 335 340 335 343 346 346 347 349 343 327 307 275 276 271 251 249 252 250 252 249 252 251 250 234 218 223 233 244 252 259 265 241 244 242 248
302 318 321 322 331 329 326 328 338 329 343 345 347 359 357 350 348 350 7 330 269 254 241 238 242 244 250 252 249 244 245 250 239 239 242 242 249 256 268 250 238 246 259
294 298 309 308 327 329 336 325 341 339 343 341 340 347 345 349 349 5 3 348 289 253 245 239 242 242 241 245 242 236 237 241 243 247 246 250 250 254 253 250 253 244 248
298 296 296 289 314 324 344 333 335 357 343 341 344 339 339 328 335 355 15 20 16 230 241 255 246 233 231 231 235 234 223 226 231 236 245 253 252 256 254 252 249 247 249
279 290 278 286 314 323 329 338 337 327 342 353 351 345 350 351 352 5 25 23 50 64 63 61 205 231 228 230 227 226 216 212 219 227 236 245 243 245 248 251 247 248 251
287 289 266 253 307 319 325 331 343 335 348 352 355 348 352 344 8 23 47 43 43 51 53 51 79 85 100 107 129 154 185 198 206 222 208 196 198 204 213 225 225 207 208
277 294 249 261 296 314 340 327 345 337 337 355 8 9 15 3 38 47 47 57 64 59 69 67 65 68 69 78 85 107 116 121 118 138 149 140 149 151 154 145 157 156 169
277 281 248 260 265 300 325 328 344 342 334 13 0 30 47 38 31 47 60 67 63 63 66 71 74 72 70 67 66 72 80 86 104 101 88 77 83 117 106 122 134 135 134
283 247 193 197 233 295 305 326 340 346 348 20 2 31 38 43 30 58 52 63 61 61 62 62 63 65 62 60 63 68 81 83 75 77 86 93 95 77 72 83 97 106 104